Weather in Oyama

Japan     36°18′54″N   139°48′12″E
temp.,
°C
wind,
m/s
gust,
m/s
humid.,
%
clouds,
%
prec.,
mm/h
press.,
hPa
HPBL,
m
11 april, sun
sun1100:00+10ne22475 0.0 1033602
03:00+9nne23535 0.0 1034253
06:00+9ne22545 0.0 1035215
09:00+13se11404 0.0 10351240
12:00+16sse22305 0.0 10331826
15:00+18sse32235 0.0 10312372
18:00+16ese553642 0.0 10321329
21:00+13ese4546100 0.0 10351136
12 april, mon
mon1200:00+13se3348100 0.0 10351205
03:00+13se234998 0.0 1034965
06:00+12ese23525 0.0 1035356
09:00+15sse234133 0.0 10341641
12:00+18sse333018 0.0 10322182
15:00+19s34254 0.0 10292331
18:00+17s653528 0.0 10291725
21:00+15sse564371 0.0 10311307
13 april, tue
tue1300:00+14sse3648100 0.0 10301260
03:00+13se2651100 0.0 1027661
06:00+13se2652100 0.0 1026699
09:00+15s4959100 0.1 10241265
12:00+17s61054100 0.1 10201545
15:00+18s71153100 0.2 10161479
18:00+17s61167100 0.1 1015958
21:00+16s51064100 0.2 1014817
14 april, wed
wed1400:00+16ssw4107665 0.0 1013786
03:00+15sw2575100 0.0 1010401
06:00+15wsw1365100 0.0 1010172
09:00+17wsw0152100 0.0 1009473
12:00+18n1154100 0.1 1006689
15:00+19n3354100 0.1 10051110
18:00+15ne4660100 0.4 1007716
21:00+10ene4674100 3.5 1011692
15 april, thu
thu1500:00+10ene3454100 0.9 10131027
03:00+8ene34415 0.9 1016677
06:00+7ne34430 0.0 1019603
09:00+11ne23320 0.0 10211168
12:00+15e22220 0.0 10201561
15:00+17se22180 0.0 10191822
18:00+13ese6632100 0.0 1022958
21:00+11ese3343100 0.0 1025883